Weather History for KCAR - December, 2012

Change the Weather History Date:

Friday, December 28, 2012

  Actual Average Record
Temperature  
Mean Temperature 21 °F 14 °F  
Max Temperature 24 °F 22 °F 47 °F (1961)
Min Temperature 17 °F 5 °F -21 °F (1993)
Degree Days  
Heating Degree Days 44 52  
Month to date heating degree days 1194 1293  
Since 1 July heating degree days 3026 3438  
Cooling Degree Days 0 0  
Month to date cooling degree days 0 0  
Year to date cooling degree days 279 180  
Moisture  
Dew Point 17 °F    
Average Humidity 82    
Maximum Humidity 92    
Minimum Humidity 71    
Precipitation  
Precipitation 0.01 in 0.10 in 0.80 in (1954)
Month to date precipitation 2.99 3.00  
Year to date precipitation 38.53 38.22  
Snow  
Snow 0.20 in 0.80 in 11.60 in (1954)
Month to date snowfall 24.9 20.4  
Since 1 July snowfall 26.5 32.6  
Snow Depth 9.00 in    
Sea Level Pressure  
Sea Level Pressure 29.71 in    
Wind  
Wind Speed 14 mph (NNW)    
Max Wind Speed 24 mph    
Max Gust Speed 31 mph    
Visibility 7 miles    
Events Snow    
T = Trace of Precipitation, MM = Missing Value Source: NWS Daily Summary

Daily Weather History Graph

Daily Weather History Graph

Search for Another Location

Airport or City:

Trip Planner

Search our weather history database for the weather conditions in past years. The results will help you decide how hot, cold, wet, or windy it might be!

Date:

Astronomy

Dec. 28, 2012 Rise Set
Actual Time 7:17 AM EST 3:50 PM EST
Civil Twilight 6:41 AM EST 4:26 PM EST
Nautical Twilight 6:03 AM EST 5:04 PM EST
Astronomical Twilight 5:26 AM EST 5:41 PM EST
Moon 4:28 PM EST (12/28) 7:05 AM EST (12/28)
Length of Visible Light 9h 44m
Length of Day
8h 33m
Full, 100% of the Moon is Illuminated
Dec 28
Full
Jan 4
Last Quarter
Jan 11
New
Jan 18
First Quarter
Jan 26
Full

Hourly Weather History & Observations

Time (EST) Temp. Windchill Dew Point Humidity Pressure Visibility Wind Dir Wind Speed Gust Speed Precip Events Conditions
12:07 AM 21.2 °F 9.5 °F 19.4 °F 93% 29.64 in 2.5 mi NNE 11.5 mph - 0.00 in Snow Light Snow
12:15 AM 21.2 °F 9.5 °F 17.6 °F 86% 29.64 in 4.0 mi NNE 11.5 mph - 0.00 in Snow Light Snow
12:22 AM 21.2 °F 9.5 °F 17.6 °F 86% 29.64 in 4.0 mi North 11.5 mph - 0.00 in Snow Light Snow
12:54 AM 21.9 °F 8.7 °F 18.0 °F 85% 29.67 in 7.0 mi North 15.0 mph - 0.00 in   Overcast
1:54 AM 21.9 °F 7.3 °F 17.1 °F 82% 29.67 in 10.0 mi North 18.4 mph 24.2 mph N/A   Overcast
2:54 AM 23.0 °F 7.6 °F 18.0 °F 81% 29.66 in 8.0 mi North 21.9 mph 31.1 mph N/A   Overcast
3:54 AM 24.1 °F 12.5 °F 18.0 °F 77% 29.66 in 10.0 mi North 12.7 mph 21.9 mph N/A   Overcast
4:16 AM 23.0 °F 9.6 °F 17.6 °F 80% 29.62 in 10.0 mi NNW 16.1 mph 23.0 mph N/A   Overcast
4:54 AM 21.9 °F 8.2 °F 18.0 °F 85% 29.67 in 10.0 mi NNW 16.1 mph 24.2 mph N/A   Overcast
5:54 AM 23.0 °F 10.6 °F 18.0 °F 81% 29.68 in 10.0 mi NNW 13.8 mph 23.0 mph N/A   Overcast
6:54 AM 23.0 °F 10.1 °F 19.0 °F 85% 29.69 in 10.0 mi North 15.0 mph 23.0 mph N/A   Overcast
7:54 AM 23.0 °F 10.1 °F 19.0 °F 85% 29.69 in 10.0 mi NNW 15.0 mph 23.0 mph N/A   Overcast
8:24 AM 24.8 °F 11.5 °F 19.4 °F 80% 29.65 in 10.0 mi NNW 17.3 mph 26.5 mph N/A   Overcast
8:31 AM 24.8 °F 11.5 °F 19.4 °F 80% 29.65 in 10.0 mi NNW 17.3 mph 25.3 mph N/A   Overcast
8:54 AM 24.1 °F 10.1 °F 18.0 °F 77% 29.70 in 10.0 mi NNW 18.4 mph 26.5 mph N/A   Overcast
9:15 AM 24.8 °F 11.5 °F 17.6 °F 74% 29.67 in 10.0 mi NNW 17.3 mph 25.3 mph N/A   Overcast
9:54 AM 24.1 °F 9.4 °F 18.0 °F 77% 29.71 in 10.0 mi NNW 20.7 mph 28.8 mph 0.00 in   Overcast
10:15 AM 23.0 °F 8.3 °F 17.6 °F 80% 29.68 in 1.8 mi NNW 19.6 mph 26.5 mph 0.00 in Snow Light Snow
10:29 AM 23.0 °F 8.0 °F 17.6 °F 80% 29.68 in 1.0 mi NNW 20.7 mph 26.5 mph 0.00 in Snow Light Snow
10:35 AM 21.2 °F 6.0 °F 17.6 °F 86% 29.68 in 0.8 mi NNW 19.6 mph 29.9 mph 0.00 in Snow Light Snow
10:54 AM 21.9 °F 6.2 °F 17.1 °F 82% 29.72 in 0.8 mi NNW 21.9 mph 26.5 mph 0.00 in Snow Light Snow
11:18 AM 21.2 °F 6.4 °F 17.6 °F 86% 29.68 in 1.0 mi NNW 18.4 mph 26.5 mph 0.00 in Snow Light Snow
11:26 AM 21.2 °F 6.8 °F 17.6 °F 86% 29.68 in 0.8 mi NW 17.3 mph 23.0 mph 0.00 in Snow Light Snow
11:44 AM 21.2 °F 6.0 °F 17.6 °F 86% 29.68 in 0.5 mi NNW 19.6 mph 27.6 mph 0.01 in Snow Snow
11:54 AM 21.9 °F 7.8 °F 17.1 °F 82% 29.72 in 0.5 mi NNW 17.3 mph 24.2 mph 0.01 in Snow Snow
12:02 PM 21.2 °F 5.2 °F 15.8 °F 80% 29.68 in 1.0 mi NNW 21.9 mph 27.6 mph 0.00 in Snow Light Snow
12:20 PM 23.0 °F 9.2 °F 17.6 °F 80% 29.67 in 1.8 mi NNW 17.3 mph 25.3 mph N/A Snow Light Snow
12:26 PM 21.2 °F 6.8 °F 17.6 °F 86% 29.67 in 3.0 mi NNW 17.3 mph 23.0 mph 0.00 in Snow Light Snow
12:41 PM 23.0 °F 8.3 °F 15.8 °F 74% 29.67 in 8.0 mi NNW 19.6 mph 27.6 mph 0.00 in   Overcast
12:54 PM 23.0 °F 8.7 °F 16.0 °F 74% 29.71 in 10.0 mi NNW 18.4 mph 29.9 mph 0.00 in   Overcast
1:54 PM 23.0 °F 9.6 °F 16.0 °F 74% 29.73 in 10.0 mi NNW 16.1 mph - N/A   Overcast
2:52 PM 21.2 °F 5.6 °F 15.8 °F 80% 29.72 in 9.0 mi NW 20.7 mph 26.5 mph N/A   Overcast
2:54 PM 21.9 °F 7.8 °F 16.0 °F 78% 29.76 in 9.0 mi NW 17.3 mph 26.5 mph N/A   Overcast
3:54 PM 21.0 °F 7.6 °F 14.0 °F 74% 29.78 in 10.0 mi NW 15.0 mph 21.9 mph N/A   Scattered Clouds
4:54 PM 21.0 °F 9.3 °F 14.0 °F 74% 29.79 in 10.0 mi NW 11.5 mph - N/A   Overcast
5:54 PM 19.9 °F 8.6 °F 15.1 °F 81% 29.80 in 6.0 mi WNW 10.4 mph - 0.00 in Snow Light Snow
6:54 PM 19.9 °F 10.1 °F 15.1 °F 81% 29.81 in 8.0 mi WNW 8.1 mph - 0.00 in Snow Light Snow
7:54 PM 19.9 °F 10.1 °F 15.1 °F 81% 29.82 in 7.0 mi WNW 8.1 mph - 0.00 in Snow Light Snow
8:54 PM 19.0 °F 10.0 °F 14.0 °F 81% 29.82 in 5.0 mi WNW 6.9 mph - 0.00 in Snow Light Snow
9:54 PM 18.0 °F 12.7 °F 14.0 °F 84% 29.83 in 10.0 mi Variable 3.5 mph - 0.00 in   Overcast
10:54 PM 19.0 °F 12.3 °F 15.1 °F 85% 29.83 in 10.0 mi WNW 4.6 mph - N/A   Overcast
11:54 PM 18.0 °F 7.7 °F 12.9 °F 81% 29.83 in 10.0 mi NW 8.1 mph - N/A   Overcast